Preview of NWS' New Version of Forecast
This preview is not operational and should not be used for support decisions.

Regional Weather Roundup (RWR)

Issued by National Weather Service (NWS)

                            
000
ASUS46 KSTO 200915
RWRCA 

NORTHERN AND CENTRAL CA REGIONAL WEATHER ROUNDUP
NATIONAL WEATHER SERVICE SACRAMENTO CA 
100 AM PST WED FEB 20 2019

NOTE: FAIR INDICATES FEW OR NO CLOUDS BELOW 12,000 FEET WITH NO
SIGNIFICANT WEATHER AND/OR OBSTRUCTIONS TO VISIBILITY.

CAZ001-003-201000-
NORTHWEST AREA
  
CITY           SKY/WX    TMP DP  RH WIND       PRES   REMARKS
CRESCENT CITY  LGT RAIN  44  42  93 N9        30.11F                  
UKIAH          PTCLDY    42  32  67 N5        30.09F                  
$$

CAZ006-505>513-201000-
BAY AREA
  
CITY           SKY/WX    TMP DP  RH WIND       PRES   REMARKS
SANTA ROSA     MOCLDY    45  35  68 NW9       30.05F                  
SAN RAFAEL     N/A      MM  MM  MM MISG
NAPA           MOCLDY    45  39  79 W16       30.06S                  
CONCORD        MOCLDY    47  39  74 S10       30.07S                  
OAKLAND CITY   N/A       49  MM  MM MISG
OAKLAND        CLOUDY    49  41  74 W15       30.08F                  
SAN FRAN CITY  N/A       48  MM  70 MISG
SAN FRAN ARPT  MOCLDY    50  39  66 W20       30.08F                  
LIVERMORE      CLOUDY    47  40  76 SW13      30.06F                  
HAYWARD        CLEAR     49  40  71 W10       30.07F                  
REDWOOD CITY   N/A       50  MM  73 MISG
MOFFETT ARPT   CLOUDY    50  40  68 W8        30.10F                  
SAN JOSE ARPT  CLOUDY    47  37  68 S6        30.10F                  
$$
CAZ034-037-514>518-201000-
CENTRAL COAST
  
CITY           SKY/WX    TMP DP  RH WIND       PRES   REMARKS
WATSONVILLE    CLOUDY    40  37  89 CALM      30.11F                  
SALINAS        CLOUDY    46  41  82 E5        30.11F                  
MONTEREY       CLOUDY    47  43  86 S6        30.12F                  
SAN LUIS OBISP MOCLDY    36  32  85 S3        30.11S                  
SANTA MARIA    CLOUDY    41  34  76 MISG      30.12F                  
$$
CAZ015-016-201000-
NORTHERN SACRAMENTO VALLEY
  
CITY           SKY/WX    TMP DP  RH WIND       PRES   REMARKS
REDDING        CLOUDY    46  30  53 S9        30.02F                  
RED BLUFF      CLOUDY    43  32  65 S5        30.06S                  
OROVILLE       CLOUDY    47  30  51 SE8       30.04F                  
$$
CAZ016>018-201000-
SOUTHERN SACRAMENTO VALLEY
  
CITY           SKY/WX    TMP DP  RH WIND       PRES   REMARKS
AUBURN         CLOUDY    41  32  70 SE9       30.01F                  
BEALE AFB      CLOUDY    47  32  56 SE13      30.02F                  
LINCOLN        CLOUDY    46  32  57 SE15      30.03F                  
MARYSVILLE     CLOUDY    46  33  60 SE14      30.04F                  
SAC INTL ARPT  CLOUDY    45  37  73 SE12      30.04F                  
MATHER AIRPORT NOT AVBL                                               
DOWNTOWN SAC   N/A       45  MM  MM MISG
SAC EXEC ARPT  MOCLDY    44  35  70 SE8       30.05F                  
VACAVILLE      CLOUDY    46  40  79 SW12      30.04F                  
TRAVIS AFB     CLOUDY    45  40  82 SW14      30.04F                  
$$
CAZ019>021-201000-
SAN JOAQUIN VALLEY
  
CITY           SKY/WX    TMP DP  RH WIND       PRES   REMARKS
STOCKTON       CLEAR     40  32  73 SE8       30.07F WCI  34          
MODESTO        PTCLDY    39  32  76 E5        30.07F                  
MERCED         CLEAR     36  34  92 E6        30.09F WCI  31          
LEMOORE        CLEAR     35  29  78 W5        30.13S WCI  31          
FRESNO         MOCLDY    41  34  76 E5        30.13S                  
HANFORD        CLEAR     34  32  92 CALM      30.14S                  
PORTERVILLE    CLEAR     32  31  96 CALM      30.13F                  
BAKERSFIELD    MOCLDY    41  29  62 E7        30.11F                  
$$
CAZ011-012-071-201000-
NORTHERN MOUNTAINS
  
CITY           SKY/WX    TMP DP  RH WIND       PRES   REMARKS
YREKA          CLOUDY    32  26  78 S7        29.97F WCI  26          
MOUNT SHASTA   PTCLDY    29  23  78 CALM      29.93F                  
ALTURAS        CLOUDY    26  20  77 SE5       29.89F WCI  20          
$$
CAZ011-012-071-201000-
SIERRA NEVADA MTNS
  
CITY           SKY/WX    TMP DP  RH WIND       PRES   REMARKS
BLUE CANYON    CLOUDY    25  23  92 S9        29.93F WCI  15          
TRUCKEE        CLOUDY    27  18  69 CALM      29.86F                  
TAHOE VLY ARPT CLOUDY    26  19  74 SW12G22   29.87F WCI  16          
MAMMOTH LAKES  FAIR      31   6  34 SW10G24   29.86F WCI  23          
$$